Find Starlink 32682

NORAD ID: 62196 Int'l Des: 2024-229 Owner: SPXS Country: US Constellation: starlink operational
LEOCIRCULAR

リアルタイム位置

3D地球を読み込み中...

Starlink 32682について

説明を読み込み中...

次回通過

Passes for default location (London). Set your location on the main map for personalized predictions.

高度履歴

Loading altitude history...

軌道要素

1 62196U 24229E 26121.51730902 .00034521 00000-0 12578-2 0 9992
2 62196 42.9969 299.7010 0000778 316.0491 44.0299 15.27589143 79019
Epoch: May 1, 2026 • Age: 10 hours

現在のステータス

高度 490.5 km
速度 7.62 km/s
衛星直下点 -28.80°S, 48.88°W
打ち上げ日 Dec 4, 2024
運用期間 1.4 years
タイプ internet

技術仕様

分類 Payload
質量 730.00 kg
乾燥質量 700.00 kg
総質量 730.00 kg
長さ 0.30 m
直径 4.10 m
スパン 29.00 m
形状 Box + pan
製造者 SPXS
バスタイプ Starlink V2M
フェーズステータス In Orbit
所有者/国 SPXS/US

Most Searched